Location: Praha
(50.0830°N, 14.4670°E)
Time: 06:55:03
(UTC+02:00)

ISS - Pass Details

Date: 28 May 2023
Orbit: 411 x 418 km, 51.6° (Epoch: 07 June)

Event Time Altitude Azimuth Distance (km) Brightness Sun altitude
Rises 22:45:36 0° 278° (W) 2,358 0.7 -12.5°
Reaches altitude 10° 22:49:21 10° 235° (SW) 1,493 -1.0 -12.8°
Maximum altitude 22:49:55 10° 225° (SW) 1,472 -1.1 -12.9°
Drops below altitude 10° 22:50:30 10° 215° (SW) 1,492 -1.2 -12.9°
Enters shadow 22:51:05 - 206° (SSW) 1,552 -1.2 -13.0°
